Weather History for Defiance, OH

Change the Weather History Date:

Tuesday, October 1, 2013

  Actual Average Record
Temperature  
Mean Temperature 62 °F -  
Max Temperature 75 °F 70 °F 88 °F (1937)
Min Temperature 51 °F 45 °F 29 °F (1947)
Degree Days  
Heating Degree Days 3    
Growing Degree Days 12 (Base 50)    
Moisture  
Dew Point 57 °F    
Average Humidity 86    
Maximum Humidity 100    
Minimum Humidity 57    
Precipitation  
Precipitation 0.00 in - - ()
Sea Level Pressure  
Sea Level Pressure 30.01 in    
Wind  
Wind Speed 3 mph (SW)    
Max Wind Speed 10 mph    
Max Gust Speed 18 mph    
Visibility 5 miles    
Events Fog    
Averages and records for this station are not official NWS values.
T = Trace of Precipitation, MM = Missing Value Source: NWS Daily Summary

Daily Weather History Graph

Daily Weather History Graph

Search for Another Location

Airport:

Trip Planner

Search our weather history database for the weather conditions in past years. The results will help you decide how hot, cold, wet, or windy it might be!

Date:

Astronomy

Oct. 01, 2013 Rise Set
Actual Time 7:34 AM EDT 7:19 PM EDT
Civil Twilight 7:07 AM EDT 7:46 PM EDT
Nautical Twilight 6:35 AM EDT 8:18 PM EDT
Astronomical Twilight 6:02 AM EDT 8:50 PM EDT
Moon 4:06 AM EDT (10/1) 5:23 PM EDT (10/1)
Length of Visible Light 12h 39m
Length of Day
11h 44m
Waning Crescent, 12% of the Moon is Illuminated
Oct 1
Waning Crescent
Oct 4
New
Oct 11
First Quarter
Oct 18
Full
Oct 26
Last Quarter

Hourly Weather History & Observations

Time (EDT) Temp. Dew Point Humidity Pressure Visibility Wind Dir Wind Speed Gust Speed Precip Events Conditions
12:53 AM 53.1 °F 51.1 °F 93% 29.99 in 7.0 mi Calm Calm - N/A   Clear
1:22 AM 51.8 °F 48.2 °F 88% 29.99 in 1.2 mi Calm Calm - N/A   Clear
1:27 AM 51.8 °F 50.0 °F 94% 29.99 in 3.0 mi Calm Calm - N/A   Clear
1:53 AM 53.1 °F 50.0 °F 89% 29.99 in 8.0 mi Calm Calm - N/A   Clear
2:53 AM 54.0 °F 52.0 °F 93% 29.99 in 3.0 mi SSW 3.5 mph - N/A   Clear
3:01 AM 55.4 °F 53.6 °F 94% 29.99 in 2.5 mi SSW 3.5 mph - N/A   Clear
3:17 AM 55.4 °F 53.6 °F 94% 29.99 in 2.0 mi SSW 3.5 mph - N/A   Clear
3:28 AM 57.2 °F 55.4 °F 94% 29.99 in 2.5 mi SW 3.5 mph - N/A   Clear
3:35 AM 55.4 °F 55.4 °F 100% 29.99 in 1.8 mi SW 3.5 mph - N/A   Clear
3:46 AM 55.4 °F 53.6 °F 94% 30.00 in 0.8 mi SSW 3.5 mph - N/A   Mist
3:53 AM 55.0 °F 53.1 °F 93% 29.99 in 0.2 mi Calm Calm - N/A Fog Fog
4:53 AM 55.0 °F 54.0 °F 96% 30.00 in 0.2 mi Calm Calm - N/A Fog Fog
5:53 AM 55.0 °F 54.0 °F 96% 30.01 in 0.2 mi Calm Calm - N/A Fog Fog
6:53 AM 55.9 °F 55.0 °F 97% 30.02 in 0.2 mi SSW 3.5 mph - N/A Fog Fog
7:53 AM 57.0 °F 55.0 °F 93% 30.04 in 0.2 mi Calm Calm - N/A Fog Fog
8:53 AM 57.9 °F 57.0 °F 97% 30.05 in 1.2 mi SSW 3.5 mph - N/A   Overcast
9:32 AM 60.8 °F 59.0 °F 94% 30.05 in 2.0 mi SW 4.6 mph - N/A   Overcast
9:44 AM 60.8 °F 59.0 °F 94% 30.05 in 1.8 mi SW 5.8 mph - N/A   Overcast
9:53 AM 61.0 °F 60.1 °F 97% 30.05 in 1.8 mi SW 4.6 mph - N/A   Overcast
10:07 AM 62.6 °F 60.8 °F 94% 30.05 in 2.0 mi SSW 4.6 mph - N/A   Overcast
10:19 AM 62.6 °F 60.8 °F 94% 30.05 in 2.5 mi SW 5.8 mph - N/A   Overcast
10:36 AM 62.6 °F 60.8 °F 94% 30.05 in 3.0 mi SW 8.1 mph 16.1 mph N/A   Overcast
10:53 AM 64.0 °F 60.1 °F 87% 30.06 in 3.0 mi SW 8.1 mph - N/A   Overcast
11:31 AM 66.2 °F 60.8 °F 83% 30.05 in 6.0 mi SW 10.4 mph - N/A   Haze
11:53 AM 66.9 °F 60.1 °F 79% 30.04 in 7.0 mi SW 6.9 mph - N/A   Overcast
12:37 PM 68.0 °F 60.8 °F 78% 30.04 in 9.0 mi SW 10.4 mph - N/A   Overcast
12:53 PM 68.0 °F 60.1 °F 76% 30.04 in 9.0 mi SW 10.4 mph - N/A   Overcast
1:53 PM 68.0 °F 60.1 °F 76% 30.04 in 10.0 mi WSW 5.8 mph - N/A   Overcast
2:53 PM 68.0 °F 60.1 °F 76% 30.02 in 10.0 mi SW 9.2 mph - N/A   Overcast
3:53 PM 72.0 °F 60.1 °F 66% 30.00 in 10.0 mi Variable 5.8 mph - N/A   Mostly Cloudy
4:53 PM 73.9 °F 59.0 °F 59% 29.99 in 10.0 mi WSW 9.2 mph - N/A   Mostly Cloudy
5:53 PM 73.9 °F 57.9 °F 57% 29.98 in 10.0 mi SSW 10.4 mph 18.4 mph N/A   Scattered Clouds
6:53 PM 73.0 °F 57.9 °F 59% 29.97 in 10.0 mi SW 10.4 mph - N/A   Clear
7:53 PM 66.9 °F 57.9 °F 73% 29.99 in 10.0 mi SSW 4.6 mph - N/A   Clear
8:53 PM 64.9 °F 57.9 °F 78% 30.00 in 10.0 mi SSW 4.6 mph - N/A   Clear
9:53 PM 64.9 °F 57.9 °F 78% 30.00 in 10.0 mi SSW 4.6 mph - N/A   Clear
10:53 PM 64.0 °F 57.9 °F 80% 29.99 in 10.0 mi SSW 4.6 mph - N/A   Clear
11:53 PM 63.0 °F 57.9 °F 84% 30.00 in 10.0 mi SSW 4.6 mph - N/A   Clear